Weather History for Easton, MD

Change the Weather History Date:

Saturday, December 28, 2013

  Actual Average Record
Temperature  
Mean Temperature 44 °F -  
Max Temperature 55 °F 49 °F 68 °F (1971)
Min Temperature 32 °F 32 °F 13 °F (1950)
Degree Days  
Heating Degree Days 22    
Moisture  
Dew Point 30 °F    
Average Humidity 69    
Maximum Humidity 87    
Minimum Humidity 36    
Precipitation  
Precipitation 0.00 in - - ()
Sea Level Pressure  
Sea Level Pressure 30.30 in    
Wind  
Wind Speed 4 mph (SW)    
Max Wind Speed 10 mph    
Max Gust Speed 16 mph    
Visibility 10 miles    
Events      
Averages and records for this station are not official NWS values.
T = Trace of Precipitation, MM = Missing Value Source: NWS Daily Summary

Daily Weather History Graph

Daily Weather History Graph

Search for Another Location

Airport:

Trip Planner

Search our weather history database for the weather conditions in past years. The results will help you decide how hot, cold, wet, or windy it might be!

Date:

Astronomy

Dec. 28, 2013 Rise Set
Actual Time 7:21 AM EST 4:50 PM EST
Civil Twilight 6:51 AM EST 5:20 PM EST
Nautical Twilight 6:18 AM EST 5:53 PM EST
Astronomical Twilight 5:46 AM EST 6:25 PM EST
Moon 2:57 AM EST 1:38 PM EST
Length of Visible Light 10h 28m
Length of Day
9h 28m
Waning Crescent, 19% of the Moon is Illuminated
Dec 28
Waning Crescent
Jan 1
New
Jan 7
First Quarter
Jan 15
Full
Jan 24
Last Quarter

Hourly Weather History & Observations

Time (EST) Temp. Windchill Dew Point Humidity Pressure Visibility Wind Dir Wind Speed Gust Speed Precip Events Conditions
12:00 AM 35.2 °F 32.4 °F 29.8 °F 81% 30.38 in 10.0 mi SSW 3.5 mph - N/A   Clear
12:20 AM 34.3 °F 30.2 °F 29.3 °F 82% 30.37 in 10.0 mi SW 4.6 mph - N/A   Clear
12:40 AM 35.6 °F 31.7 °F 29.8 °F 80% 30.37 in 10.0 mi SW 4.6 mph - N/A   Clear
1:00 AM 35.2 °F 32.4 °F 29.3 °F 79% 30.37 in 10.0 mi SW 3.5 mph - N/A   Clear
1:20 AM 35.6 °F 31.7 °F 29.3 °F 78% 30.37 in 10.0 mi SW 4.6 mph - N/A   Clear
1:40 AM 35.4 °F 32.6 °F 29.3 °F 78% 30.37 in 10.0 mi SW 3.5 mph - N/A   Clear
2:00 AM 36.0 °F 33.3 °F 29.3 °F 77% 30.37 in 10.0 mi SW 3.5 mph - N/A   Clear
2:20 AM 36.5 °F - 29.7 °F 76% 30.37 in 10.0 mi Calm Calm - N/A   Clear
2:40 AM 36.3 °F - 29.8 °F 77% 30.36 in 10.0 mi Calm Calm - N/A   Clear
3:00 AM 34.2 °F - 29.3 °F 82% 30.35 in 10.0 mi Calm Calm - N/A   Clear
3:20 AM 34.3 °F - 29.5 °F 82% 30.35 in 10.0 mi Calm Calm - N/A   Clear
3:40 AM 35.2 °F - 29.3 °F 79% 30.35 in 10.0 mi Calm Calm - N/A   Clear
4:00 AM 35.1 °F 32.2 °F 29.3 °F 80% 30.34 in 10.0 mi SSW 3.5 mph - N/A   Clear
4:21 AM 34.3 °F - 28.9 °F 81% 30.34 in 10.0 mi Calm Calm - N/A   Clear
4:41 AM 34.3 °F 31.4 °F 28.9 °F 81% 30.34 in 10.0 mi SW 3.5 mph - N/A   Clear
5:01 AM 34.0 °F 29.8 °F 29.1 °F 82% 30.34 in 10.0 mi SSW 4.6 mph - N/A   Clear
5:21 AM 32.9 °F 29.8 °F 28.2 °F 83% 30.34 in 10.0 mi SW 3.5 mph - N/A   Clear
5:22 AM 32.9 °F 29.8 °F 28.4 °F 84% 30.34 in 10.0 mi SW 3.5 mph - N/A   Clear
6:53 AM 33.8 °F 28.6 °F 28.4 °F 81% 30.35 in 10.0 mi SW 5.8 mph - N/A   Clear
7:53 AM 32.0 °F 26.4 °F 28.4 °F 87% 30.35 in 10.0 mi SW 5.8 mph - N/A   Clear
8:53 AM 39.2 °F 35.0 °F 32.0 °F 75% 30.35 in 10.0 mi SW 5.8 mph - N/A   Clear
9:53 AM 44.6 °F 40.7 °F 32.0 °F 61% 30.36 in 10.0 mi WSW 6.9 mph - N/A   Clear
10:45 AM 48.2 °F - 30.2 °F 50% 30.35 in 10.0 mi WSW 6.9 mph - N/A   Clear
11:45 AM 50.0 °F - 28.4 °F 43% 30.30 in 10.0 mi SW 6.9 mph - N/A   Clear
12:47 PM 53.6 °F - 28.4 °F 38% 30.27 in 10.0 mi SW 10.4 mph 16.1 mph N/A   Clear
1:45 PM 55.4 °F - 28.4 °F 36% 30.25 in 10.0 mi SW 10.4 mph - N/A   Clear
2:55 PM 55.4 °F - 28.4 °F 36% 30.22 in 10.0 mi SW 10.4 mph - N/A   Clear
3:45 PM 53.6 °F - 30.2 °F 41% 30.23 in 10.0 mi SW 8.1 mph - N/A   Scattered Clouds
4:45 PM 50.0 °F - 30.2 °F 47% 30.25 in 10.0 mi SW 5.8 mph - N/A   Partly Cloudy
5:50 PM 46.4 °F 44.3 °F 30.2 °F 53% 30.24 in 10.0 mi South 4.6 mph - N/A   Clear
9:43 PM 45.1 °F 42.8 °F 34.7 °F 67% 30.20 in 10.0 mi SSW 4.6 mph - N/A   Clear
10:03 PM 44.6 °F 43.1 °F 34.3 °F 67% 30.20 in 10.0 mi SSW 3.5 mph - N/A   Clear
10:23 PM 45.1 °F - 34.2 °F 65% 30.20 in 10.0 mi Calm Calm - N/A   Clear
10:43 PM 44.6 °F 43.1 °F 33.8 °F 66% 30.19 in 10.0 mi SSW 3.5 mph - N/A   Clear
11:03 PM 43.9 °F 41.3 °F 33.8 °F 68% 30.19 in 10.0 mi South 4.6 mph - N/A   Clear
11:23 PM 46.2 °F 45.0 °F 33.1 °F 60% 30.18 in 10.0 mi South 3.5 mph - N/A   Clear
11:43 PM 45.5 °F 43.2 °F 32.9 °F 61% 30.18 in 10.0 mi South 4.6 mph - N/A   Clear